Preview of NWS' New Version of Forecast
This preview is not operational and should not be used for support decisions.

Regional Weather Roundup (RWR)

Issued by National Weather Service (NWS)

                            
000
ASUS43 KDMX 192306
RWRIA 

WEATHER ROUNDUP FOR IOWA
NATIONAL WEATHER SERVICE DES MOINES IA
600 PM CDT FRI APR 19 2019

NOTE: "FAIR" INDICATES FEW OR NO CLOUDS BELOW 12,000 FEET WITH NO
SIGNIFICANT WEATHER AND/OR OBSTRUCTIONS TO VISIBILITY.

* - THESE STATIONS ARE NOT NWS STATIONS...THUS NOT UNDER NWS
QUALITY CONTROL.  THEY ALSO DO NOT REPORT WEATHER SUCH 
AS PRECIPITATION OR FOG.  

IAZ001>003-012>014-020>022-031>034-043>046-200000-
   NORTHWEST IOWA
  
CITY           SKY/WX    TMP DP  RH WIND       PRES   REMARKS
CARROLL *      SUNNY     64  30  27 N13       29.96F                  
CHEROKEE *     SUNNY     63  29  28 CALM      29.96F                  
DENISON *      SUNNY     63  27  25 N7        29.98F                  
LE MARS *      SUNNY     63  27  25 W8        29.96F                  
SHELDON *      SUNNY     61  30  31 CALM      29.94F                  
SIOUX CITY     SUNNY     63  31  30 E3        29.95F                  
SPENCER        SUNNY     63  30  28 CALM      29.96F                  
STORM LAKE *   SUNNY     61  27  27 NW6       29.94S                  
$$
 
IAZ055>058-069>071-079>083-090>094-200000-
   SOUTHWEST IOWA
  
CITY           SKY/WX    TMP DP  RH WIND       PRES   REMARKS
ATLANTIC *     SUNNY     63  30  29 N10G16    29.96F                  
AUDUBON *      SUNNY     63  25  23 CALM      29.98F                  
CLARINDA *     SUNNY     64  27  24 N13       29.99F                  
COUNCIL BLFS * SUNNY     63  25  23 W3        29.98F                  
CRESTON *      SUNNY     61  27  27 N13G18    29.96F                  
HARLAN  *      SUNNY     63  27  25 NW12      29.97F                  
LAMONI         SUNNY     62  29  28 N12       29.95S                  
RED OAK *      SUNNY     64  27  24 NW10G17   29.98S                  
SHENANDOAH *   SUNNY     64  27  24 N13       29.97F                  
$$
 
IAZ047>049-059>061-072>074-084-200000-
   CENTRAL IOWA
  
CITY           SKY/WX    TMP DP  RH WIND       PRES   REMARKS
AMES           SUNNY     63  31  30 NW12      29.96S                  
ANKENY *       SUNNY     63  28  27 MISG      29.96F                  
BOONE *        SUNNY     63  30  29 N14       29.95F                  
CHARITON *     SUNNY     61  27  27 N16       29.94F                  
DES MOINES     SUNNY     63  28  26 N13G20    29.95F                  
GRINNELL*      SUNNY     61  27  27 N13G21    29.95S                  
KNOXVILLE *    SUNNY     61  23  23 N15G23    29.94S                  
MARSHALLTOWN   SUNNY     61  30  31 N14       29.95S                  
NEWTON *       SUNNY     61  28  29 N14       29.95S                  
PELLA *        SUNNY     64  23  21 N10G16    29.95F                  
PERRY *        FAIR      64  25  23 N9        29.96F                  
$$
 
IAZ004>006-015-016-023>025-035-036-200000-
   NORTH CENTRAL IOWA
  
CITY           SKY/WX    TMP DP  RH WIND       PRES   REMARKS
ALGONA *       SUNNY     61  30  31 N9        29.95F                  
CLARION *      SUNNY     61  28  29 NW8G16    29.96F                  
ESTHERVILLE    SUNNY     60  30  32 VRB5      29.95F                  
FORT DODGE *   SUNNY     62  30  29 W3        29.97F                  
MASON CITY     SUNNY     61  33  35 N7        29.97F                  
FOREST CITY *  FAIR      61  27  27 N7        29.97S                  
IOWA FALLS *   FAIR      62  31  31 N10       29.97S                  
$$

IAZ007>011-017>019-026>030-037>042-050>054-066-200000-
   NORTHEAST IOWA
  
CITY           SKY/WX    TMP DP  RH WIND       PRES   REMARKS
CEDAR RAPIDS   FAIR      61  25  25 N17       29.91S                  
CHARLES CITY * FAIR      59  28  31 N10       29.96S                  
CLINTON *      FAIR      61  25  25 N20       29.88S                  
DECORAH *      FAIR      59  21  23 N12G18    29.93F                  
DUBUQUE        FAIR      60  21  22 N16G31    29.90S                  
MONTICELLO *   FAIR      61  23  23 N14G22    29.91S                  
OELWEIN *      FAIR      59  23  25 N15       29.94F                  
WATERLOO       FAIR      63  29  27 N15       29.94S                  
$$
 
IAZ064-065-067-068-078-200000-
   EAST CENTRAL IOWA
  
CITY           SKY/WX    TMP DP  RH WIND       PRES   REMARKS
DAVENPORT      FAIR      62  20  19 N17G32    29.90S                  
IOWA CITY      FAIR      62  20  19 N15G29    29.92S                  
MT. PLEASANT * SUNNY     63  27  25 N20G31    29.90S                  
MUSCATINE *    FAIR      63  21  20 N20G31    29.90S                  
QUAD CITIES    FAIR      63  22  20 N16G24    29.86S                  
$$
 
IAZ062-063-075>077-085>089-095>099-200000-
   SOUTHEAST IOWA
  
CITY           SKY/WX    TMP DP  RH WIND       PRES   REMARKS
BURLINGTON     SUNNY     61  24  24 N22G37    29.88S                  
FAIRFIELD *    SUNNY     63  21  20 N22       29.90S                  
FORT MADISON * SUNNY     61  27  27 N16G29    29.89R                  
KEOKUK *       SUNNY     61  21  21 N18G30    29.87S                  
OSKALOOSA *    FAIR      62  22  21 N20G25    29.92F                  
CENTERVILLE *  FAIR      59  27  29 N17       29.94F                  
OTTUMWA        SUNNY     62  27  26 N20G28    29.92F                  
WASHINGTON *   SUNNY     63  21  20 N21       29.91S                  
$$

ABBREVIATIONS USED IN REMARKS
   TC - TEMPERATURES IN CELSIUS
  WCI - WIND CHILL INDEX
   HX - HEAT INDEX
  VSB - VISIBILITY  
$$